This is the latest recevied weather packets stored in our database for station/object HK6REC-22. If no packets are shown the sender has not sent any weather packets the latest 10 day(s).
| Time | Temp. | Humidity | Pressure | Rain* | Wind** | Luminosity | Snow |
|---|---|---|---|---|---|---|---|
| 1777912429 | 26.11° C | 80% | 1013 hPa | 0 mm | - | - | - |
| 1777910628 | 26.11° C | 86% | 1015 hPa | 0 mm | - | - | - |
| 1777908827 | 25° C | 82% | 1014 hPa | 0 mm | - | - | - |
| 1777907026 | 25° C | 90% | 1016 hPa | 0 mm | - | - | - |
| 1777905225 | 22.22° C | 90% | 1015 hPa | 0 mm | - | - | - |
| 1777903424 | 19.44° C | 95% | 1016 hPa | 0 mm | - | - | - |
| 1777901623 | 18.89° C | 94% | 1015 hPa | 0 mm | - | - | - |
| 1777899822 | 19.44° C | 96% | 1016 hPa | 0 mm | - | - | - |
| 1777898021 | 19.44° C | 95% | 1015 hPa | 0 mm | - | - | - |
| 1777896219 | 20° C | 94% | 1015 hPa | 0 mm | - | - | - |
| 1777894418 | 20° C | 93% | 1015 hPa | 0 mm | - | - | - |
| 1777892617 | 15.56° C | 92% | 1016 hPa | 0 mm | - | - | - |
| 1777890816 | 16.11° C | 94% | 1015 hPa | 0 mm | - | - | - |
| 1777889015 | 20° C | 92% | 1015 hPa | 0 mm | - | - | - |
| 1777887214 | 21.11° C | 94% | 1014 hPa | 0.25 mm | - | - | - |
| 1777885413 | 16.11° C | 91% | 1015 hPa | 0 mm | - | - | - |
| 1777883612 | 16.11° C | 94% | 1014 hPa | 0 mm | - | - | - |
| 1777881811 | 16.67° C | 91% | 1015 hPa | 0 mm | - | - | - |
| 1777880010 | 16.67° C | 94% | 1014 hPa | 0 mm | - | - | - |
| 1777878209 | 17.22° C | 92% | 1015 hPa | 0.25 mm | - | - | - |
| 1777876408 | 17.22° C | 94% | 1015 hPa | 0.76 mm | - | - | - |
| 1777874607 | 17.78° C | 93% | 1015 hPa | 1.02 mm | - | - | - |
| 1777872806 | 17.78° C | 93% | 1015 hPa | 0.51 mm | - | - | - |
| 1777871005 | 18.33° C | 91% | 1016 hPa | 0.51 mm | - | - | - |
| 1777869204 | 18.33° C | 93% | 1016 hPa | 0 mm | - | - | - |
* Rain latest hour (hover to see other rain measurements)
** Current wind speed in m/s (hover to see current wind gust speed)